Selawik, AK

8:11 AM AKDT on July 27, 2017 (GMT -0800)
Selawik

Weather History for PASK - October, 2012

Change the Weather History Date:

Tuesday, October 30, 2012

  Actual Average Record
Temperature  
Mean Temperature 20 °F -  
Max Temperature 26 °F 16 °F 39 °F (2002)
Min Temperature 15 °F 9 °F -5 °F (2011)
Degree Days  
Heating Degree Days 44    
Moisture  
Dew Point 13 °F    
Average Humidity 68    
Maximum Humidity 80    
Minimum Humidity 55    
Precipitation  
Precipitation 0.00 in - - ()
Sea Level Pressure  
Sea Level Pressure 30.36 in    
Wind  
Wind Speed 10 mph (NNW)    
Max Wind Speed 17 mph    
Max Gust Speed 25 mph    
Visibility 10 miles    
Events      
Averages and records for this station are not official NWS values.
T = Trace of Precipitation, MM = Missing Value Source: NWS Daily Summary

Daily Weather History Graph

Daily Weather History Graph

Search for Another Location

Airport or City:

Trip Planner

Search our weather history database for the weather conditions in past years. The results will help you decide how hot, cold, wet, or windy it might be!

Date:

Astronomy

Oct. 30, 2012 Rise Set
Actual Time 10:34 AM AKDT 6:10 PM AKDT
Civil Twilight 9:35 AM AKDT 7:10 PM AKDT
Nautical Twilight 8:32 AM AKDT 8:13 PM AKDT
Astronomical Twilight 7:31 AM AKDT 9:13 PM AKDT
Moon 5:56 PM AKDT (10/30) 12:21 PM AKDT (10/30)
Length of Visible Light 9h 35m
Length of Day
7h 36m
Full, 99% of the Moon is Illuminated
Oct 30
Full
Nov 6
Last Quarter
Nov 13
New
Nov 20
First Quarter
Nov 28
Full

Hourly Weather History & Observations

Time (AKDT) Temp. Windchill Dew Point Humidity Pressure Visibility Wind Dir Wind Speed Gust Speed Precip Events Conditions
12:16 AM 15.8 °F 6.1 °F 8.6 °F 73% 30.29 in 10.0 mi WNW 6.9 mph - N/A   Mostly Cloudy
12:36 AM 15.8 °F 4.2 °F 10.4 °F 79% 30.29 in 10.0 mi WNW 9.2 mph - N/A   Mostly Cloudy
12:56 AM 15.8 °F 6.1 °F 10.4 °F 79% 30.30 in 10.0 mi West 6.9 mph - N/A   Mostly Cloudy
1:16 AM 15.8 °F 6.1 °F 10.4 °F 79% 30.30 in 10.0 mi WNW 6.9 mph - N/A   Overcast
1:36 AM 17.6 °F 5.7 °F 12.2 °F 79% 30.29 in 10.0 mi WNW 10.4 mph - N/A   Overcast
1:56 AM 17.6 °F 7.3 °F 12.2 °F 79% 30.30 in 10.0 mi West 8.1 mph - N/A   Overcast
2:16 AM 19.4 °F 7.9 °F 12.2 °F 74% 30.30 in 10.0 mi WNW 10.4 mph - N/A   Overcast
2:36 AM 19.4 °F 9.5 °F 12.2 °F 74% 30.30 in 10.0 mi WNW 8.1 mph - N/A   Overcast
2:56 AM 19.4 °F 12.8 °F 14.0 °F 80% 30.30 in 10.0 mi WNW 4.6 mph - N/A   Overcast
3:16 AM 19.4 °F 9.5 °F 14.0 °F 80% 30.30 in 10.0 mi WNW 8.1 mph - N/A   Overcast
3:36 AM 19.4 °F 8.6 °F 14.0 °F 80% 30.29 in 10.0 mi WNW 9.2 mph - N/A   Overcast
3:56 AM 21.2 °F 10.9 °F 14.0 °F 74% 30.30 in 10.0 mi NW 9.2 mph - N/A   Overcast
4:16 AM 21.2 °F 10.9 °F 14.0 °F 74% 30.30 in 10.0 mi WNW 9.2 mph - N/A   Overcast
4:36 AM 21.2 °F 10.9 °F 14.0 °F 74% 30.30 in 10.0 mi NW 9.2 mph - N/A   Overcast
4:56 AM 21.2 °F 10.9 °F 14.0 °F 74% 30.30 in 10.0 mi NW 9.2 mph - N/A   Mostly Cloudy
5:16 AM 21.2 °F 10.9 °F 14.0 °F 74% 30.30 in 10.0 mi NW 9.2 mph - N/A   Overcast
5:36 AM 21.2 °F 13.6 °F 14.0 °F 74% 30.30 in 10.0 mi NW 5.8 mph - N/A   Mostly Cloudy
5:56 AM 21.2 °F 12.6 °F 15.8 °F 80% 30.30 in 10.0 mi NW 6.9 mph - N/A   Mostly Cloudy
6:16 AM 21.2 °F 11.7 °F 15.8 °F 80% 30.31 in 10.0 mi WNW 8.1 mph - N/A   Overcast
6:36 AM 21.2 °F 10.9 °F 15.8 °F 80% 30.31 in 10.0 mi NW 9.2 mph - N/A   Overcast
6:56 AM 21.2 °F 11.7 °F 15.8 °F 80% 30.31 in 10.0 mi WNW 8.1 mph - N/A   Overcast
7:16 AM 21.2 °F 10.9 °F 15.8 °F 80% 30.30 in 10.0 mi NW 9.2 mph - N/A   Overcast
7:36 AM 23.0 °F 12.4 °F 15.8 °F 74% 30.31 in 10.0 mi WNW 10.4 mph - N/A   Overcast
8:16 AM 23.0 °F 11.1 °F 15.8 °F 74% 30.31 in 10.0 mi WNW 12.7 mph - N/A   Overcast
8:36 AM 23.0 °F 12.4 °F 15.8 °F 74% 30.31 in 10.0 mi NW 10.4 mph - N/A   Overcast
8:56 AM 23.0 °F 13.9 °F 15.8 °F 74% 30.32 in 10.0 mi NW 8.1 mph - N/A   Mostly Cloudy
9:16 AM 23.0 °F 13.1 °F 15.8 °F 74% 30.32 in 10.0 mi NW 9.2 mph 16.1 mph N/A   Partly Cloudy
9:36 AM 23.0 °F 13.9 °F 15.8 °F 74% 30.32 in 10.0 mi NW 8.1 mph - N/A   Clear
9:56 AM 23.0 °F 13.1 °F 14.0 °F 68% 30.33 in 10.0 mi NW 9.2 mph - N/A   Clear
10:16 AM 23.0 °F 11.7 °F 15.8 °F 74% 30.33 in 10.0 mi NNW 11.5 mph - N/A   Clear
10:36 AM 23.0 °F 11.7 °F 15.8 °F 74% 30.33 in 10.0 mi NNW 11.5 mph - N/A   Clear
10:56 AM 24.8 °F 13.4 °F 14.0 °F 64% 30.34 in 10.0 mi NNW 12.7 mph - N/A   Clear
11:16 AM 24.8 °F 12.9 °F 14.0 °F 64% 30.34 in 10.0 mi NNW 13.8 mph - N/A   Clear
11:36 AM 24.8 °F 14.6 °F 12.2 °F 59% 30.35 in 10.0 mi North 10.4 mph - N/A   Mostly Cloudy
11:56 AM 24.8 °F 16.1 °F 12.2 °F 59% 30.36 in 10.0 mi North 8.1 mph - N/A   Scattered Clouds
12:16 PM 24.8 °F 14.0 °F 14.0 °F 64% 30.37 in 10.0 mi North 11.5 mph - N/A   Partly Cloudy
12:36 PM 24.8 °F 14.0 °F 14.0 °F 64% 30.37 in 10.0 mi North 11.5 mph - N/A   Partly Cloudy
12:56 PM 24.8 °F 12.9 °F 14.0 °F 64% 30.37 in 10.0 mi North 13.8 mph 18.4 mph N/A   Scattered Clouds
1:16 PM 26.6 °F 15.2 °F 14.0 °F 59% 30.38 in 10.0 mi North 13.8 mph - N/A   Mostly Cloudy
1:36 PM 24.8 °F 12.9 °F 14.0 °F 64% 30.38 in 10.0 mi North 13.8 mph - N/A   Mostly Cloudy
1:56 PM 26.6 °F 15.7 °F 12.2 °F 55% 30.38 in 10.0 mi North 12.7 mph - N/A   Mostly Cloudy
2:16 PM 26.6 °F 16.2 °F 12.2 °F 55% 30.39 in 10.0 mi North 11.5 mph - N/A   Overcast
2:36 PM 26.6 °F 15.2 °F 12.2 °F 55% 30.40 in 10.0 mi North 13.8 mph - N/A   Overcast
2:56 PM 24.8 °F 12.9 °F 12.2 °F 59% 30.39 in 10.0 mi North 13.8 mph 20.7 mph N/A   Overcast
3:16 PM 24.8 °F 12.9 °F 12.2 °F 59% 30.40 in 10.0 mi North 13.8 mph - N/A   Overcast
3:36 PM 24.8 °F 12.9 °F 12.2 °F 59% 30.40 in 10.0 mi North 13.8 mph 17.3 mph N/A   Mostly Cloudy
3:56 PM 26.6 °F 16.8 °F 12.2 °F 55% 30.39 in 10.0 mi North 10.4 mph 17.3 mph N/A   Mostly Cloudy
4:16 PM 26.6 °F 16.2 °F 12.2 °F 55% 30.39 in 10.0 mi North 11.5 mph - N/A   Overcast
4:36 PM 24.8 °F 15.3 °F 12.2 °F 59% 30.40 in 10.0 mi North 9.2 mph - N/A   Mostly Cloudy
4:56 PM 24.8 °F 12.9 °F 12.2 °F 59% 30.40 in 10.0 mi North 13.8 mph - N/A   Partly Cloudy
5:16 PM 24.8 °F 14.6 °F 12.2 °F 59% 30.40 in 10.0 mi North 10.4 mph - N/A   Partly Cloudy
5:36 PM 24.8 °F 14.0 °F 12.2 °F 59% 30.39 in 10.0 mi North 11.5 mph - N/A   Clear
5:56 PM 24.8 °F 14.0 °F 12.2 °F 59% 30.40 in 10.0 mi North 11.5 mph - N/A   Clear
6:16 PM 23.0 °F 10.6 °F 12.2 °F 63% 30.40 in 10.0 mi North 13.8 mph - N/A   Clear
6:36 PM 23.0 °F 10.6 °F 12.2 °F 63% 30.40 in 10.0 mi North 13.8 mph - N/A   Clear
6:56 PM 23.0 °F 10.6 °F 12.2 °F 63% 30.40 in 10.0 mi North 13.8 mph - N/A   Clear
7:16 PM 23.0 °F 11.7 °F 10.4 °F 59% 30.40 in 10.0 mi North 11.5 mph - N/A   Clear
7:36 PM 21.2 °F 10.1 °F 10.4 °F 63% 30.41 in 10.0 mi North 10.4 mph - N/A   Clear
7:56 PM 21.2 °F 8.9 °F 12.2 °F 68% 30.41 in 10.0 mi North 12.7 mph - N/A   Clear
8:16 PM 21.2 °F 8.9 °F 12.2 °F 68% 30.41 in 10.0 mi North 12.7 mph - N/A   Scattered Clouds
8:36 PM 21.2 °F 10.1 °F 12.2 °F 68% 30.42 in 10.0 mi North 10.4 mph - N/A   Partly Cloudy
8:56 PM 21.2 °F 9.5 °F 12.2 °F 68% 30.42 in 10.0 mi North 11.5 mph - N/A   Partly Cloudy
9:16 PM 21.2 °F 11.7 °F 12.2 °F 68% 30.42 in 10.0 mi North 8.1 mph - N/A   Partly Cloudy
9:36 PM 21.2 °F 9.5 °F 12.2 °F 68% 30.42 in 10.0 mi North 11.5 mph - N/A   Partly Cloudy
9:56 PM 21.2 °F 7.8 °F 12.2 °F 68% 30.42 in 10.0 mi North 15.0 mph 18.4 mph N/A   Partly Cloudy
10:16 PM 21.2 °F 8.3 °F 12.2 °F 68% 30.42 in 10.0 mi North 13.8 mph - N/A   Clear
10:36 PM 23.0 °F 10.1 °F 12.2 °F 63% 30.42 in 10.0 mi North 15.0 mph 20.7 mph N/A   Clear
10:56 PM 23.0 °F 10.1 °F 12.2 °F 63% 30.42 in 10.0 mi North 15.0 mph 20.7 mph N/A   Clear
11:16 PM 21.2 °F 6.8 °F 12.2 °F 68% 30.43 in 10.0 mi North 17.3 mph 20.7 mph N/A   Clear
11:36 PM 21.2 °F 7.3 °F 12.2 °F 68% 30.42 in 10.0 mi North 16.1 mph 25.3 mph N/A   Clear
11:56 PM 21.2 °F 7.3 °F 10.4 °F 63% 30.43 in 10.0 mi North 16.1 mph 21.9 mph N/A   Clear